STARLINK-30206

decayed
NORAD ID: 57295 Int'l Des: 2023-096 Owner: SPXS Country: US Constellation: starlink
LEOCIRCULAR
グループ

STARLINK-30206について

説明を読み込み中...

高度履歴

Altitude vs Time

uPlot chart will show altitude changes over time

軌道要素

1 57295U 23096F 25154.73569628 .17658768 91217-5 71453-2 0 9996
2 57295 42.9716 257.3010 0012968 350.8496 144.4842 16.22247661105042
Epoch: Jun 3, 2025 • Age: 2562 hours

現在のステータス

Position data unavailable
打ち上げ日 Jul 10, 2023
運用期間 2.1 years
落下予定日 Jun 4, 2025
タイプ internet

技術仕様

分類 Payload
質量 730.00 kg
乾燥質量 700.00 kg
総質量 730.00 kg
長さ 0.30 m
直径 4.10 m
スパン 29.00 m
形状 Box + pan
製造者 SPXS
バスタイプ Starlink V2M
フェーズステータス Unknown Transfer Status
所有者/国 SPXS/US

大規模コンステレーション

Loading constellations...